| time (UTC) | temp F | wind direction | speed MPH | gust MPH | rain 1hr in | rain 24hr in | rain mn in | humidity % | barometer mb |
| 20260503033205 | 55 | 352 | 4.0 | 12.0 | 0.00 | 0.00 | 0.00 | 51 | 1011.1 |
| 20260503032704 | 55 | 338 | 5.0 | 12.0 | 0.00 | 0.00 | 0.00 | 51 | 1011.0 |
| 20260503032205 | 55 | 348 | 2.0 | 8.0 | 0.00 | 0.00 | 0.00 | 51 | 1011.1 |
| 20260503031704 | 55 | 346 | 3.0 | 10.0 | 0.00 | 0.00 | 0.00 | 50 | 1011.1 |
| 20260503031205 | 55 | 343 | 3.0 | 8.0 | 0.00 | 0.00 | 0.00 | 49 | 1011.1 |
| 20260503030704 | 55 | 351 | 3.0 | 9.0 | 0.00 | 0.00 | 0.00 | 48 | 1011.1 |
| 20260503025705 | 55 | 1 | 2.0 | 7.0 | 0.00 | 0.00 | 0.00 | 48 | 1011.0 |
| 20260503025205 | 55 | 357 | 2.0 | 8.0 | 0.00 | 0.00 | 0.00 | 49 | 1011.0 |
| 20260503024705 | 55 | 27 | 2.0 | 7.0 | 0.00 | 0.00 | 0.00 | 49 | 1011.0 |
| 20260503024205 | 55 | 13 | 2.0 | 8.0 | 0.00 | 0.00 | 0.00 | 48 | 1010.9 |
| 20260503023705 | 55 | 28 | 1.0 | 5.0 | 0.00 | 0.00 | 0.00 | 48 | 1010.9 |
| 20260503023204 | 55 | 15 | 4.0 | 12.0 | 0.00 | 0.00 | 0.00 | 48 | 1010.9 |
| 20260503022704 | 55 | 357 | 3.0 | 9.0 | 0.00 | 0.00 | 0.00 | 49 | 1010.9 |
| 20260503022204 | 55 | 330 | 3.0 | 8.0 | 0.00 | 0.00 | 0.00 | 48 | 1010.8 |
| 20260503021705 | 55 | 349 | 3.0 | 9.0 | 0.00 | 0.00 | 0.00 | 48 | 1010.8 |
| 20260503021205 | 55 | 345 | 5.0 | 12.0 | 0.00 | 0.00 | 0.00 | 49 | 1010.9 |
| 20260503020704 | 55 | 4 | 2.0 | 5.0 | 0.00 | 0.00 | 0.00 | 48 | 1010.9 |
| 20260503020205 | 56 | 333 | 3.0 | 8.0 | 0.00 | 0.00 | 0.00 | 47 | 1010.9 |
| 20260503015704 | 56 | 353 | 3.0 | 12.0 | 0.00 | 0.00 | 0.00 | 47 | 1011.0 |
| 20260503015204 | 56 | 330 | 4.0 | 10.0 | 0.00 | 0.00 | 0.00 | 48 | 1011.0 |
| 20260503014704 | 56 | 340 | 4.0 | 8.0 | 0.00 | 0.00 | 0.00 | 47 | 1011.1 |
| 20260503013705 | 56 | 5 | 3.0 | 8.0 | 0.00 | 0.00 | 0.00 | 47 | 1011.1 |
| 20260503013204 | 56 | 343 | 5.0 | 9.0 | 0.00 | 0.00 | 0.00 | 47 | 1011.0 |
| 20260503012704 | 56 | 354 | 6.0 | 13.0 | 0.00 | 0.00 | 0.00 | 46 | 1011.0 |
| 20260503012204 | 56 | 336 | 5.0 | 10.0 | 0.00 | 0.00 | 0.00 | 46 | 1011.0 |
| 20260503011704 | 56 | 0 | 5.0 | 13.0 | 0.00 | 0.00 | 0.00 | 46 | 1010.9 |
| 20260503011204 | 56 | 352 | 3.0 | 8.0 | 0.00 | 0.00 | 0.00 | 49 | 1011.0 |
| 20260503010704 | 56 | 329 | 3.0 | 8.0 | 0.00 | 0.00 | 0.00 | 46 | 1010.9 |
| 20260503010205 | 56 | 337 | 5.0 | 10.0 | 0.00 | 0.00 | 0.00 | 47 | 1010.9 |
| 20260503005204 | 56 | 335 | 4.0 | 12.0 | 0.00 | 0.00 | 0.00 | 47 | 1010.7 |
| 20260503004704 | 56 | 354 | 4.0 | 12.0 | 0.00 | 0.00 | 0.00 | 48 | 1010.6 |
| 20260503004204 | 56 | 337 | 4.0 | 8.0 | 0.00 | 0.00 | 0.00 | 49 | 1010.6 |
| 20260503003204 | 56 | 7 | 5.0 | 8.0 | 0.00 | 0.00 | 0.00 | 50 | 1010.5 |
| 20260503002204 | 56 | 346 | 1.0 | 5.0 | 0.00 | 0.00 | 0.00 | 49 | 1010.4 |
| 20260503001704 | 56 | 347 | 1.0 | 3.0 | 0.00 | 0.00 | 0.00 | 49 | 1010.3 |
| 20260503001205 | 56 | 327 | 0.0 | 3.0 | 0.00 | 0.00 | 0.00 | 50 | 1010.2 |
| 20260503000704 | 56 | 353 | 1.0 | 3.0 | 0.00 | 0.00 | 0.00 | 48 | 1010.2 |
| 20260503000205 | 56 | 0 | 1.0 | 2.0 | 0.00 | 0.00 | 0.00 | 48 | 1010.3 |
| 20260502235704 | 56 | 7 | 2.0 | 3.0 | 0.00 | 0.00 | 0.00 | 48 | 1010.2 |
| 20260502235205 | 56 | 346 | 1.0 | 3.0 | 0.00 | 0.00 | 0.00 | 48 | 1010.1 |
| 20260502234705 | 57 | 12 | 2.0 | 3.0 | 0.00 | 0.00 | 0.00 | 47 | 1010.0 |
| 20260502234204 | 57 | 354 | 1.0 | 3.0 | 0.00 | 0.00 | 0.00 | 47 | 1009.9 |
| 20260502233205 | 57 | 334 | 1.0 | 6.0 | 0.00 | 0.00 | 0.00 | 46 | 1009.9 |
| 20260502232704 | 57 | 357 | 1.0 | 3.0 | 0.00 | 0.00 | 0.00 | 47 | 1009.9 |
| 20260502231704 | 57 | 4 | 1.0 | 5.0 | 0.00 | 0.00 | 0.00 | 45 | 1009.9 |
| 20260502231204 | 57 | 352 | 1.0 | 3.0 | 0.00 | 0.00 | 0.00 | 46 | 1009.8 |
| 20260502230204 | 57 | 4 | 2.0 | 8.0 | 0.00 | 0.00 | 0.00 | 44 | 1009.9 |
| 20260502225204 | 58 | 36 | 5.0 | 10.0 | 0.00 | 0.00 | 0.00 | 45 | 1009.9 |
| 20260502224704 | 58 | 56 | 3.0 | 9.0 | 0.00 | 0.00 | 0.00 | 47 | 1009.9 |
| 20260502224204 | 58 | 55 | 3.0 | 8.0 | 0.00 | 0.00 | 0.00 | 47 | 1009.9 |
| 20260502223704 | 58 | 33 | 3.0 | 5.0 | 0.00 | 0.00 | 0.00 | 44 | 1010.0 |
| 20260502223204 | 58 | 35 | 2.0 | 6.0 | 0.00 | 0.00 | 0.00 | 44 | 1009.9 |
| 20260502222704 | 58 | 18 | 3.0 | 7.0 | 0.00 | 0.00 | 0.00 | 44 | 1009.9 |
| 20260502222204 | 59 | 355 | 5.0 | 9.0 | 0.00 | 0.00 | 0.00 | 44 | 1010.0 |
| 20260502221704 | 59 | 358 | 3.0 | 9.0 | 0.00 | 0.00 | 0.00 | 43 | 1009.9 |
| 20260502221204 | 59 | 27 | 2.0 | 6.0 | 0.00 | 0.00 | 0.00 | 42 | 1009.9 |
| 20260502220704 | 59 | 45 | 3.0 | 10.0 | 0.00 | 0.00 | 0.00 | 44 | 1010.0 |
| 20260502220204 | 59 | 47 | 5.0 | 12.0 | 0.00 | 0.00 | 0.00 | 42 | 1009.9 |
| 20260502215704 | 59 | 44 | 6.0 | 14.0 | 0.00 | 0.00 | 0.00 | 42 | 1010.0 |
| 20260502215204 | 59 | 30 | 5.0 | 10.0 | 0.00 | 0.00 | 0.00 | 46 | 1009.9 |
| 20260502214704 | 59 | 42 | 8.0 | 12.0 | 0.00 | 0.00 | 0.00 | 44 | 1009.8 |
| 20260502214204 | 59 | 50 | 5.0 | 10.0 | 0.00 | 0.00 | 0.00 | 44 | 1009.8 |
| 20260502213205 | 60 | 354 | 6.0 | 10.0 | 0.00 | 0.00 | 0.00 | 43 | 1009.9 |
| 20260502212704 | 60 | 17 | 3.0 | 10.0 | 0.00 | 0.00 | 0.00 | 46 | 1009.9 |
| 20260502212204 | 60 | 19 | 5.0 | 10.0 | 0.00 | 0.00 | 0.00 | 44 | 1009.9 |
| 20260502210704 | 59 | 32 | 6.0 | 12.0 | 0.00 | 0.00 | 0.00 | 44 | 1009.8 |
| 20260502205704 | 58 | 42 | 7.0 | 12.0 | 0.00 | 0.00 | 0.00 | 50 | 1009.8 |
| 20260502205204 | 58 | 36 | 2.0 | 8.0 | 0.00 | 0.00 | 0.00 | 46 | 1009.8 |
| 20260502204704 | 58 | 9 | 6.0 | 10.0 | 0.00 | 0.00 | 0.00 | 44 | 1009.8 |
| 20260502204204 | 59 | 357 | 4.0 | 12.0 | 0.00 | 0.00 | 0.00 | 44 | 1009.8 |
| 20260502203705 | 59 | 51 | 7.0 | 12.0 | 0.00 | 0.00 | 0.00 | 45 | 1009.8 |
| 20260502203205 | 59 | 31 | 3.0 | 9.0 | 0.00 | 0.00 | 0.00 | 41 | 1009.9 |
| 20260502202704 | 59 | 13 | 5.0 | 13.0 | 0.00 | 0.00 | 0.00 | 41 | 1009.9 |
| 20260502202204 | 59 | 12 | 4.0 | 9.0 | 0.00 | 0.00 | 0.00 | 43 | 1009.8 |
| 20260502201704 | 59 | 36 | 7.0 | 12.0 | 0.00 | 0.00 | 0.00 | 44 | 1009.8 |
| 20260502200704 | 60 | 53 | 4.0 | 10.0 | 0.00 | 0.00 | 0.00 | 44 | 1009.9 |
| 20260502200204 | 60 | 356 | 4.0 | 13.0 | 0.00 | 0.00 | 0.00 | 43 | 1009.9 |
| 20260502195704 | 59 | 29 | 6.0 | 10.0 | 0.00 | 0.00 | 0.00 | 44 | 1010.0 |
| 20260502194704 | 60 | 58 | 7.0 | 14.0 | 0.00 | 0.00 | 0.00 | 43 | 1010.1 |
| 20260502194204 | 60 | 61 | 7.0 | 14.0 | 0.00 | 0.00 | 0.00 | 43 | 1010.1 |
| 20260502193204 | 61 | 39 | 5.0 | 14.0 | 0.00 | 0.00 | 0.00 | 43 | 1010.3 |
| 20260502192205 | 62 | 35 | 7.0 | 12.0 | 0.00 | 0.00 | 0.00 | 44 | 1010.4 |
| 20260502191704 | 62 | 23 | 3.0 | 14.0 | 0.00 | 0.00 | 0.00 | 46 | 1010.5 |
| 20260502191204 | 61 | 312 | 6.0 | 12.0 | 0.00 | 0.00 | 0.00 | 43 | 1010.5 |
| 20260502190204 | 61 | 25 | 4.0 | 9.0 | 0.00 | 0.00 | 0.00 | 42 | 1010.6 |
| 20260502185704 | 61 | 349 | 3.0 | 12.0 | 0.00 | 0.00 | 0.00 | 48 | 1010.8 |
| 20260502185204 | 60 | 23 | 6.0 | 14.0 | 0.00 | 0.00 | 0.00 | 47 | 1010.8 |
| 20260502184704 | 60 | 323 | 5.0 | 12.0 | 0.00 | 0.00 | 0.00 | 45 | 1011.0 |
| 20260502184204 | 60 | 11 | 5.0 | 10.0 | 0.00 | 0.00 | 0.00 | 48 | 1011.1 |
| 20260502183704 | 59 | 343 | 3.0 | 13.0 | 0.00 | 0.00 | 0.00 | 48 | 1011.1 |
| 20260502183205 | 59 | 75 | 5.0 | 10.0 | 0.00 | 0.00 | 0.00 | 47 | 1011.3 |
| 20260502182204 | 59 | 15 | 2.0 | 9.0 | 0.00 | 0.00 | 0.00 | 48 | 1011.4 |
| 20260502181204 | 59 | 355 | 5.0 | 10.0 | 0.00 | 0.00 | 0.00 | 47 | 1011.5 |
| 20260502180705 | 60 | 9 | 9.0 | 13.0 | 0.00 | 0.00 | 0.00 | 49 | 1011.5 |
| 20260502180204 | 59 | 42 | 6.0 | 12.0 | 0.00 | 0.00 | 0.00 | 52 | 1011.5 |
| 20260502164204 | 56 | 346 | 5.0 | 9.0 | 0.00 | 0.00 | 0.00 | 55 | 1012.3 |
| 20260502163704 | 56 | 352 | 6.0 | 9.0 | 0.00 | 0.00 | 0.00 | 58 | 1012.3 |
| 20260502163204 | 55 | 22 | 5.0 | 10.0 | 0.00 | 0.00 | 0.00 | 56 | 1012.3 |
| 20260502162704 | 55 | 328 | 6.0 | 14.0 | 0.00 | 0.00 | 0.00 | 55 | 1012.3 |
| 20260502162204 | 55 | 358 | 4.0 | 8.0 | 0.00 | 0.00 | 0.00 | 58 | 1012.3 |
| 20260502161704 | 55 | 44 | 6.0 | 13.0 | 0.00 | 0.00 | 0.00 | 57 | 1012.3 |
| 20260502161204 | 55 | 5 | 6.0 | 13.0 | 0.00 | 0.00 | 0.00 | 56 | 1012.3 |
| 20260502160704 | 55 | 64 | 3.0 | 10.0 | 0.00 | 0.00 | 0.00 | 57 | 1012.4 |
| 20260502160204 | 55 | 5 | 5.0 | 12.0 | 0.00 | 0.00 | 0.00 | 54 | 1012.5 |
| 20260502152204 | 55 | 30 | 5.0 | 12.0 | 0.00 | 0.00 | 0.00 | 62 | 1013.0 |
| 20260502151704 | 55 | 5 | 6.0 | 10.0 | 0.00 | 0.00 | 0.00 | 63 | 1012.8 |
| 20260502151204 | 54 | 353 | 6.0 | 14.0 | 0.00 | 0.00 | 0.00 | 64 | 1012.7 |
| 20260502150704 | 54 | 351 | 9.0 | 14.0 | 0.00 | 0.00 | 0.00 | 63 | 1012.6 |
| 20260502150204 | 54 | 341 | 5.0 | 13.0 | 0.00 | 0.00 | 0.00 | 65 | 1012.4 |
| 20260502130704 | 53 | 34 | 7.0 | 13.0 | 0.00 | 0.00 | 0.00 | 63 | 1012.2 |
| 20260502123704 | 52 | 345 | 5.0 | 9.0 | 0.00 | 0.00 | 0.00 | 64 | 1012.3 |
| 20260502123204 | 52 | 355 | 4.0 | 8.0 | 0.00 | 0.00 | 0.00 | 64 | 1012.3 |
| 20260502122703 | 52 | 5 | 3.0 | 10.0 | 0.00 | 0.00 | 0.00 | 66 | 1012.2 |
| 20260502121204 | 52 | 353 | 4.0 | 12.0 | 0.00 | 0.00 | 0.00 | 65 | 1012.0 |
| 20260502120704 | 52 | 355 | 4.0 | 9.0 | 0.00 | 0.00 | 0.00 | 65 | 1012.0 |
| 20260502120203 | 52 | 352 | 6.0 | 12.0 | 0.00 | 0.00 | 0.00 | 64 | 1012.1 |
| 20260502115704 | 52 | 352 | 8.0 | 15.0 | 0.00 | 0.00 | 0.00 | 65 | 1012.2 |
| 20260502114704 | 53 | 328 | 4.0 | 10.0 | 0.00 | 0.00 | 0.00 | 65 | 1012.2 |
| 20260502113704 | 52 | 344 | 4.0 | 13.0 | 0.00 | 0.00 | 0.00 | 65 | 1012.1 |
| 20260502113204 | 52 | 0 | 5.0 | 9.0 | 0.00 | 0.00 | 0.00 | 65 | 1012.1 |
| 20260502112703 | 52 | 358 | 3.0 | 10.0 | 0.00 | 0.00 | 0.00 | 64 | 1012.2 |
| 20260502112204 | 52 | 298 | 3.0 | 9.0 | 0.00 | 0.00 | 0.00 | 63 | 1012.1 |
| 20260502111204 | 52 | 345 | 2.0 | 10.0 | 0.00 | 0.00 | 0.00 | 62 | 1012.0 |
| 20260502110704 | 53 | 322 | 6.0 | 12.0 | 0.00 | 0.00 | 0.00 | 61 | 1011.9 |
| 20260502110204 | 53 | 350 | 6.0 | 12.0 | 0.00 | 0.00 | 0.00 | 60 | 1011.9 |
| 20260502105704 | 53 | 351 | 5.0 | 13.0 | 0.00 | 0.00 | 0.00 | 61 | 1011.7 |
| 20260502105204 | 53 | 344 | 5.0 | 15.0 | 0.00 | 0.00 | 0.00 | 61 | 1011.7 |
| 20260502104704 | 53 | 257 | 3.0 | 8.0 | 0.00 | 0.00 | 0.00 | 65 | 1011.6 |
| 20260502103704 | 53 | 340 | 5.0 | 12.0 | 0.00 | 0.00 | 0.00 | 64 | 1011.8 |
| 20260502103204 | 53 | 345 | 2.0 | 10.0 | 0.00 | 0.00 | 0.00 | 65 | 1011.6 |
| 20260502102704 | 53 | 338 | 6.0 | 12.0 | 0.00 | 0.00 | 0.00 | 64 | 1011.6 |
| 20260502102204 | 53 | 322 | 5.0 | 15.0 | 0.00 | 0.00 | 0.00 | 64 | 1011.6 |
| 20260502101204 | 54 | 319 | 3.0 | 10.0 | 0.00 | 0.00 | 0.00 | 63 | 1011.5 |
| 20260502100704 | 54 | 21 | 5.0 | 12.0 | 0.00 | 0.00 | 0.00 | 63 | 1011.4 |
| 20260502090705 | 54 | 348 | 2.0 | 6.0 | 0.00 | 0.00 | 0.00 | 72 | 1011.1 |
| 20260502071205 | 54 | 328 | 0.0 | 3.0 | 0.00 | 0.00 | 0.00 | 80 | 1010.3 |
| 20260502070705 | 54 | 306 | 0.0 | 1.0 | 0.00 | 0.00 | 0.00 | 80 | 1010.3 |
| 20260502070206 | 55 | 295 | 0.0 | 2.0 | 0.00 | 0.00 | 0.00 | 80 | 1010.3 |
| 20260502065705 | 55 | 252 | 1.0 | 3.0 | 0.00 | 0.00 | 0.00 | 80 | 1010.3 |
| 20260502065206 | 55 | 196 | 0.0 | 2.0 | 0.00 | 0.00 | 0.00 | 80 | 1010.2 |
| 20260502064705 | 55 | 266 | 1.0 | 3.0 | 0.00 | 0.00 | 0.00 | 80 | 1010.3 |
| 20260502064205 | 55 | 272 | 2.0 | 6.0 | 0.00 | 0.00 | 0.00 | 80 | 1010.5 |
| 20260502063705 | 55 | 251 | 2.0 | 3.0 | 0.00 | 0.00 | 0.00 | 80 | 1010.5 |
| 20260502062705 | 55 | 229 | 6.0 | 9.0 | 0.00 | 0.00 | 0.00 | 80 | 1010.6 |
| 20260502062205 | 55 | 234 | 6.0 | 10.0 | 0.00 | 0.00 | 0.00 | 81 | 1010.5 |
| 20260502061706 | 55 | 239 | 7.0 | 10.0 | 0.00 | 0.00 | 0.00 | 82 | 1010.5 |
| 20260502061205 | 55 | 226 | 7.0 | 10.0 | 0.00 | 0.00 | 0.00 | 82 | 1010.6 |
| 20260502060706 | 55 | 226 | 7.0 | 9.0 | 0.00 | 0.00 | 0.00 | 81 | 1010.5 |
| 20260502060206 | 56 | 230 | 6.0 | 9.0 | 0.00 | 0.00 | 0.00 | 80 | 1010.8 |
| 20260502055706 | 56 | 220 | 7.0 | 9.0 | 0.00 | 0.00 | 0.00 | 80 | 1010.8 |
| 20260502055205 | 56 | 216 | 7.0 | 9.0 | 0.00 | 0.00 | 0.00 | 80 | 1010.9 |
| 20260502054705 | 56 | 193 | 6.0 | 10.0 | 0.00 | 0.00 | 0.00 | 79 | 1010.9 |
| 20260502054205 | 56 | 210 | 6.0 | 10.0 | 0.00 | 0.00 | 0.00 | 78 | 1010.9 |
| 20260502053205 | 56 | 223 | 7.0 | 9.0 | 0.00 | 0.00 | 0.00 | 77 | 1011.1 |
| 20260502052705 | 56 | 211 | 7.0 | 10.0 | 0.00 | 0.00 | 0.00 | 77 | 1011.0 |
| 20260502052205 | 56 | 222 | 7.0 | 13.0 | 0.00 | 0.00 | 0.00 | 77 | 1011.1 |
| 20260502051706 | 56 | 206 | 9.0 | 12.0 | 0.00 | 0.00 | 0.00 | 77 | 1011.0 |
| 20260502051206 | 56 | 202 | 7.0 | 12.0 | 0.00 | 0.00 | 0.00 | 76 | 1011.0 |
| 20260502050206 | 56 | 206 | 6.0 | 12.0 | 0.00 | 0.00 | 0.00 | 75 | 1010.9 |
| 20260502045705 | 56 | 190 | 6.0 | 10.0 | 0.00 | 0.00 | 0.00 | 75 | 1010.9 |
| 20260502044205 | 56 | 192 | 6.0 | 15.0 | 0.00 | 0.00 | 0.00 | 73 | 1010.8 |
| 20260502043705 | 56 | 188 | 7.0 | 14.0 | 0.00 | 0.00 | 0.00 | 73 | 1010.8 |
| 20260502042705 | 57 | 176 | 6.0 | 12.0 | 0.00 | 0.00 | 0.00 | 73 | 1010.8 |
| 20260502042205 | 57 | 193 | 7.0 | 17.0 | 0.00 | 0.00 | 0.00 | 72 | 1010.8 |
| 20260502041705 | 57 | 183 | 9.0 | 17.0 | 0.00 | 0.00 | 0.00 | 72 | 1010.7 |
| 20260502041205 | 57 | 172 | 6.0 | 10.0 | 0.00 | 0.00 | 0.00 | 71 | 1010.8 |
| 20260502040705 | 57 | 184 | 10.0 | 16.0 | 0.00 | 0.00 | 0.00 | 71 | 1010.8 |
| 20260502035705 | 57 | 192 | 7.0 | 13.0 | 0.00 | 0.00 | 0.00 | 72 | 1010.8 |
| 20260502034705 | 57 | 179 | 7.0 | 16.0 | 0.00 | 0.00 | 0.00 | 72 | 1010.8 |
| 20260502034206 | 57 | 175 | 7.0 | 17.0 | 0.00 | 0.00 | 0.00 | 70 | 1010.9 |
| 20260502033705 | 57 | 190 | 7.0 | 15.0 | 0.00 | 0.00 | 0.00 | 70 | 1010.8 |